Location: Chequamegon National Forest
(46.1070°N, 90.8420°W)
Time: 09:04:12
(UTC-05:00)

Daily predictions for brighter satellites

Satellite Brightness Start Highest point End
(mag) Time Altitude Azimuth Time Altitude Azimuth Time Altitude Azimuth
Cosmos 2344 4.4 21:26:08 10° SW 21:33:52 63° NW 21:43:09 10° NE
Envisat 3.1 21:32:50 10° SSE 21:37:55 85° WSW 21:43:02 10° NNW
H-2A R/B 2.6 21:33:40 10° S 21:38:09 64° WSW 21:42:40 10° NNW
ATLAS 5 CENTAUR R/B 3.4 21:34:35 10° WSW 21:39:18 43° NW 21:44:27 10° NNE
DELTA 2 R/B (1) 4.1 21:34:53 10° WSW 21:40:05 41° S 21:45:14 10° ESE
Cosmos 1328 Rocket 4.2 21:36:01 10° NNW 21:40:25 59° W 21:44:47 10° S
Meteor 2-20 4.5 21:34:47 10° S 21:40:52 69° E 21:46:58 10° NNE
Cosmos 2112 Rocket 4.5 21:37:21 10° NNW 21:42:26 50° ENE 21:47:31 10° SE
S3M 4.4 21:36:27 10° NNW 21:42:31 66° W 21:48:34 10° S
Cosmos 371 Rocket 4.4 21:39:00 10° NW 21:43:33 42° WSW 21:48:04 10° S
Cosmos 2228 Rocket 4.4 21:41:17 10° NNW 21:45:29 41° W 21:49:42 10° SSW
Cosmos 2058 4.1 21:43:29 10° SE 21:46:52 25° E 21:50:17 10° NNE
ERS-1 Rocket 4.1 21:42:50 10° S 21:47:35 42° W 21:52:24 10° NNW
YAOGAN 6 2.8 21:46:29 10° SSE 21:50:05 59° ENE 21:53:40 10° N
Cosmos 2219 Rocket 3.7 21:46:35 10° N 21:51:08 25° NE 21:55:39 10° ESE
Cosmos 405 3.0 21:47:59 10° N 21:51:38 85° ENE 21:55:16 10° SSE
SPOT 5 2.9 21:47:10 10° S 21:51:41 79° WSW 21:56:31 10° NNW
Cosmos 1777 Rocket 4.0 21:49:08 10° SSW 21:54:24 79° ESE 21:59:41 10° NNE
Cosmos 1437 3.2 21:52:57 10° SSE 21:56:04 42° E 21:59:13 10° NNE
MetOp-A 4.2 21:55:49 10° SSE 22:01:11 83° WSW 22:06:34 10° NNW
ARGOS 3.4 21:55:58 10° SSE 22:01:18 61° ENE 22:06:37 10° N
Cosmos 1500 Rocket 4.2 21:58:42 10° SSW 22:03:00 59° WNW 22:07:23 10° N
BREEZE-M DEB (TANK) 2.7 22:01:36 10° WNW 22:03:37 39° N 22:05:50 10° E
H-2A R/B 3.0 22:00:41 11° SE 22:05:21 36° ENE 22:10:17 10° N
ATLAS 3B R/B 4.5 21:59:58 10° NNW 22:05:55 26° NNE 22:11:33 10° E
SL-14 R/B 4.4 22:05:19 13° SE 22:08:14 28° E 22:11:41 10° NNE
Cosmos 2219 3.6 22:04:35 10° S 22:09:58 43° ESE 22:15:23 10° NE
ATLAS CENTAUR R/B 4.1 22:09:52 10° W 22:11:43 12° WSW 22:13:31 10° SW
NOSS 3-1 (C) 4.1 22:06:55 10° S 22:12:04 32° ESE 22:17:41 10° NE
Cosmos 1271 Rocket 4.1 22:09:06 10° NNE 22:12:18 25° ENE 22:14:50 14° ESE
SL-08 RB Rocket 3.8 22:08:39 12° SSE 22:12:40 62° ENE 22:17:07 10° N
Cosmos 2322 3.9 22:09:53 10° NNW 22:15:36 72° WSW 22:20:54 12° SSE
SPOT 1/Viking Rocket 3.6 22:12:08 10° SSE 22:17:17 84° WSW 22:22:29 10° NNW
Cosmos 2237 Rocket 3.7 22:13:23 10° N 22:18:11 27° NE 22:22:58 10° ESE
DELTA 2 DEB (DPAF) 4.4 22:16:07 14° SSE 22:19:49 57° ENE 22:24:15 10° N
Cosmos 1726 2.6 22:16:10 10° N 22:19:49 46° ENE 22:22:28 17° SE
Cosmos 1680 Rocket 3.7 22:14:49 10° NNW 22:20:03 72° WSW 22:24:52 12° S
Cosmos 2322 Rocket 4.1 22:16:49 10° NW 22:21:11 24° WSW 22:25:34 10° SSW
USA 245 3.1 22:26:25 14° S 22:28:32 44° WSW 22:30:51 10° NNW
Cosmos 304 Rocket 4.3 22:23:55 10° NNW 22:28:38 55° WSW 22:32:54 12° S
AVUM R/B 3.5 22:26:28 10° SW 22:28:46 48° WNW 22:31:16 10° NNE
SL-16 R/B 4.2 22:26:15 10° NW 22:30:29 22° W 22:34:41 10° SSW
CZ-4B R/B 3.7 22:26:57 10° NNE 22:32:16 81° WNW 22:37:29 10° SSW
Cosmos 2360 Rocket 2.8 22:26:59 10° NW 22:32:28 52° WSW 22:37:27 12° S
Cosmos 2315 Rocket 4.2 22:30:00 10° NNW 22:36:12 70° W 22:42:17 10° S
NOAA 11 4.3 22:31:17 13° S 22:36:14 75° WSW 22:41:43 10° NNW
Cosmos 1898 Rocket 3.9 22:33:17 15° SSE 22:37:16 42° ESE 22:42:08 10° NE
Landsat 7 3.8 22:35:02 17° SSE 22:38:41 81° ENE 22:43:28 10° NNW
Meteor 1-11 4.3 22:33:51 10° S 22:39:36 75° E 22:45:20 10° NNE
CARTOSAT-1 3.7 22:37:19 20° SSE 22:40:15 61° ENE 22:44:31 10° N
Cosmos 1633 Rocket 3.1 22:42:16 17° S 22:45:34 66° E 22:49:56 10° NNE
Sich 1 3.0 22:42:32 16° S 22:46:00 71° E 22:50:24 10° NNE
Spot 4 4.1 22:44:35 20° SE 22:47:47 57° ENE 22:52:33 10° N
Cosmos 292 Rocket 3.9 22:46:41 10° NNW 22:51:28 66° ENE 22:54:22 23° SE
Cosmos 2151 4.4 22:48:48 10° SW 22:52:42 37° WNW 22:56:38 10° N
Terra 1.8 22:51:23 21° SSE 22:54:33 82° ENE 22:59:20 10° NNW
USA 229 DEB 4.4 22:47:54 10° SW 22:54:44 60° NW 23:01:42 10° NE
USA 229 4.3 22:47:59 10° SW 22:54:50 60° NW 23:01:48 10° NE
Meteor 2-10 4.3 22:50:21 10° N 22:56:02 71° ENE 22:59:52 22° SSE
Meteor 1-4 Rocket 2.6 22:52:46 10° N 22:56:35 87° ENE 22:58:33 27° SSE
Cosmos 1300 3.5 22:53:46 10° NNW 22:57:28 46° W 23:00:11 17° SSW
Cosmos 1805 Rocket 4.2 22:54:32 10° SSW 22:58:55 56° WNW 23:03:19 10° N
Cosmos 2227 Rocket 3.1 22:57:46 22° SE 23:00:08 30° ESE 23:04:59 10° NE
Cosmos 1626 3.1 22:59:43 26° SE 23:00:51 31° E 23:04:13 10° NNE
SeaSat 1 3.4 22:58:28 16° ESE 23:01:54 39° NE 23:06:29 10° NNW
CZ-4 R/B 4.5 22:57:10 10° N 23:02:04 58° WNW 23:06:51 10° SSW
USA 32 4.1 22:57:30 10° N 23:02:48 83° W 23:06:29 20° S
Cosmos 2333 Rocket 2.5 22:57:46 10° NNW 23:03:29 59° ENE 23:07:11 22° SE
Cosmos 1346 4.1 23:04:06 29° ESE 23:04:23 30° E 23:07:06 10° NNE
Spot 2 4.5 23:03:11 10° NNE 23:08:20 65° ESE 23:11:31 22° S
Nadezhda 1 Rocket 3.9 23:02:24 10° N 23:08:31 75° E 23:12:27 23° SSE
SL-16 R/B 3.6 23:04:25 10° N 23:09:23 30° NE 23:13:41 13° ESE
CZ-4C R/B 4.2 23:07:42 19° SSW 23:09:43 37° W 23:12:59 10° NNW
Lacrosse 4 Rocket 3.5 23:07:45 10° N 23:11:08 21° NE 23:14:33 10° E
Cosmos 1869 3.8 23:07:50 10° N 23:11:47 48° ENE 23:13:24 30° SE
NOSS 3-1 (A) 3.4 23:08:13 10° SSW 23:14:04 66° ESE 23:20:37 10° NE
COSMOS 2428 3.3 23:09:33 10° NW 23:14:59 48° WSW 23:18:35 21° S
Cosmos 1455 2.1 23:16:45 10° N 23:20:33 74° E 23:21:56 37° SSE
Cosmos 1745 Rocket 4.0 23:17:11 18° S 23:22:00 88° W 23:28:14 10° N
Cosmos 2297 Rocket 2.9 23:25:44 27° SE 23:27:42 34° ESE 23:32:45 10° NE
Cosmos 2298 Rocket 4.4 23:22:42 10° SSW 23:27:59 65° WNW 23:33:17 10° NNE
H-2A R/B 4.3 23:27:23 10° NE 23:30:05 16° E 23:30:32 16° E
Cosmos 1709 Rocket 4.3 23:27:28 27° SSE 23:30:37 51° E 23:36:30 10° NNE
Cosmos 2221 Rocket 4.5 23:27:18 10° N 23:31:36 39° ENE 23:33:22 27° ESE
Cosmos 192 4.5 23:26:59 10° NNW 23:31:54 67° ENE 23:34:11 31° SE
Cosmos 1470 Rocket 3.6 23:31:55 27° SSW 23:34:12 77° W 23:38:33 10° N
COS B Rocket 4.0 23:31:05 10° NNE 23:34:25 36° E 23:35:12 32° ESE
Cosmos 1703 Rocket 4.2 23:31:18 10° N 23:35:28 43° ENE 23:37:00 31° SE
Cosmos 2219 Rocket 2.3 23:30:01 10° NNW 23:35:34 64° WSW 23:38:24 29° S
Cosmos 1933 Rocket 3.6 23:33:20 27° SSW 23:35:43 78° W 23:40:13 10° N
ATLAS 2AS CENTAUR R/B 3.3 23:32:40 24° S 23:36:53 45° ESE 23:44:26 10° NE
COSMOS 2455 3.4 23:32:15 10° NNW 23:38:09 52° NE 23:42:07 21° ESE
GEOS 3 Rocket 3.8 23:35:40 24° SE 23:38:50 69° NE 23:44:00 10° NW
Cosmos 1937 Rocket 3.6 23:36:51 18° SSW 23:40:47 79° WNW 23:46:02 10° NNE
Okean 1-7 4.2 23:36:59 10° N 23:40:49 31° ENE 23:42:15 25° ESE
Cosmos 220 Rocket 4.1 23:38:58 24° SSW 23:41:33 79° WNW 23:46:01 10° NNE
H-2A R/B 3.3 23:41:19 17° SSW 23:44:45 35° W 23:49:42 10° NNW
Cosmos 1703 4.4 23:42:50 18° SW 23:45:16 38° WNW 23:48:58 10° N
Cosmos 2181 Rocket 4.1 23:41:08 10° N 23:47:29 69° E 23:50:50 30° SSE
Cosmos 1271 Rocket 4.5 23:45:10 10° NW 23:48:18 25° W 23:50:04 18° SW
Cosmos 1980 3.8 23:43:36 10° NNW 23:49:13 69° WSW 23:51:50 32° S
Cosmos 1269 Rocket 4.1 23:48:32 10° NNW 23:53:52 69° ENE 23:56:14 33° SE
Cosmos 389 Rocket 3.6 23:51:39 10° N 23:54:56 32° ENE 23:55:35 30° E
